TimeEDT,TemperatureF,Dew PointF,Humidity,Sea Level PressureIn,VisibilityMPH,Wind Direction,Wind SpeedMPH,Gust SpeedMPH,PrecipitationIn,Events,Conditions,WindDirDegrees,DateUTC
12:53 AM,41.0,34.0,76,30.05,10.0,WNW,3.5,-,N/A,,Overcast,300,2013-03-29 04:53:00
1:53 AM,41.0,34.0,76,30.05,10.0,Calm,Calm,-,N/A,,Overcast,0,2013-03-29 05:53:00
2:53 AM,43.0,33.1,68,30.05,10.0,NNW,5.8,-,N/A,,Overcast,330,2013-03-29 06:53:00
3:53 AM,42.1,32.0,67,30.05,10.0,NNW,6.9,-,N/A,,Scattered Clouds,330,2013-03-29 07:53:00
4:53 AM,39.9,32.0,73,30.05,10.0,NNW,6.9,-,N/A,,Clear,330,2013-03-29 08:53:00
5:53 AM,39.0,32.0,76,30.06,10.0,NNW,4.6,-,N/A,,Clear,330,2013-03-29 09:53:00
6:53 AM,39.0,30.9,73,30.07,10.0,Calm,Calm,-,N/A,,Clear,0,2013-03-29 10:53:00
7:53 AM,42.1,32.0,67,30.08,10.0,NNW,6.9,-,N/A,,Clear,330,2013-03-29 11:53:00
8:53 AM,46.0,32.0,58,30.08,10.0,NNW,6.9,-,N/A,,Clear,340,2013-03-29 12:53:00
9:53 AM,48.9,32.0,52,30.08,10.0,NNW,6.9,-,N/A,,Clear,330,2013-03-29 13:53:00
10:53 AM,53.1,30.9,43,30.07,10.0,NNW,8.1,-,N/A,,Clear,340,2013-03-29 14:53:00
11:53 AM,53.1,32.0,45,30.06,10.0,SW,9.2,-,N/A,,Scattered Clouds,230,2013-03-29 15:53:00
12:53 PM,53.1,32.0,45,30.05,10.0,SW,9.2,-,N/A,,Clear,230,2013-03-29 16:53:00
1:53 PM,53.1,33.1,47,30.03,10.0,SW,10.4,-,N/A,,Clear,230,2013-03-29 17:53:00
2:53 PM,52.0,30.9,45,30.02,10.0,WSW,10.4,21.9,N/A,,Clear,250,2013-03-29 18:53:00
3:53 PM,51.1,30.0,44,30.01,10.0,WSW,12.7,23.0,N/A,,Clear,250,2013-03-29 19:53:00
4:53 PM,50.0,30.0,46,30.01,10.0,WSW,15.0,23.0,N/A,,Clear,250,2013-03-29 20:53:00
5:53 PM,48.9,30.9,50,30.01,10.0,WSW,12.7,23.0,N/A,,Clear,240,2013-03-29 21:53:00
6:53 PM,48.0,30.9,52,30.01,10.0,WSW,8.1,-,N/A,,Partly Cloudy,250,2013-03-29 22:53:00
7:53 PM,45.0,34.0,65,30.03,10.0,WSW,3.5,-,N/A,,Clear,250,2013-03-29 23:53:00
8:53 PM,41.0,34.0,76,30.04,10.0,Calm,Calm,-,N/A,,Partly Cloudy,0,2013-03-30 00:53:00
9:53 PM,46.9,26.1,44,30.06,10.0,NNW,9.2,-,N/A,,Overcast,330,2013-03-30 01:53:00
10:53 PM,46.9,27.0,46,30.06,10.0,NNW,8.1,-,N/A,,Overcast,330,2013-03-30 02:53:00
11:53 PM,46.0,27.0,47,30.07,10.0,NW,6.9,-,N/A,,Overcast,320,2013-03-30 03:53:00